Regional Weather Roundup
Issued by NWS

Home | Current Version | Previous Version | Text Only | Print | Product List | Glossary Off
Versions: 1 2 3 4 5 6 7 8 9 10 11 12 13 14 15 16 17 18 19 20 21 22 23 24 25 26 27 28 29 30 31 32 33 34 35 36 37 38 39 40 41 42 43 44 45 46 47 48 49 50

000
ASUS43 KLMK 131402
RWRKY
KENTUCKY REGIONAL WEATHER ROUNDUP
NATIONAL WEATHER SERVICE LOUISVILLE KY
900 AM EST SAT FEB 13 2016

NOTE "FAIR" INDICATES FEW OR NO CLOUDS BELOW 12,000 FEET
WITH NO SIGNIFICANT WEATHER AND/OR OBSTRUCTIONS TO VISIBILITY.

KYZ001>023-026-027-061>063-070>075-131500-
WESTERN AND SOUTH CENTRAL KENTUCKY

CITY           SKY/WX    TMP DP  RH WIND       PRES   REMARKS
PADUCAH        SUNNY     19   4  51 N15       30.62R WCI   5
HENDERSON      MOSUNNY   16   3  57 N9        30.63R WCI   4
OWENSBORO      SUNNY     16   3  56 N10       30.63R WCI   4
HOPKINSVILLE   SUNNY     18   6  60 N13       30.58R WCI   4
BOWLING GREEN  SUNNY     19   7  59 N8        30.58R WCI   9
GLASGOW        NOT AVBL
$$

KYZ024-025-028>034-038-045-046-053-131500-
NORTH CENTRAL KENTUCKY

CITY           SKY/WX    TMP DP  RH WIND       PRES   REMARKS
LOUISVILLE/SDF MOSUNNY   17  -1  45 NW13      30.58R WCI   4
LOUISVILLE/LOU MOSUNNY   16  -1  47 NW12      30.58R WCI   3
FORT KNOX      MOSUNNY   15  -1  48 NW10      30.54R WCI   2
$$

KYZ035>037-039>044-047>052-055>060-089>105-131500-
NORTHEAST KENTUCKY

CITY           SKY/WX    TMP DP  RH WIND       PRES   REMARKS
LEXINGTON      MOSUNNY   15   4  61 N12       30.50R WCI   2
COVINGTON      PTSUNNY   11   3  70 NW10      30.51R WCI  -3
FRANKFORT      MOSUNNY   15   1  53 NW10      30.52R WCI   2
$$

KYZ054-064>069-076>088-106>120-131500-
SOUTHEAST KENTUCKY

CITY           SKY/WX    TMP DP  RH WIND       PRES   REMARKS
JACKSON        MOSUNNY   15   3  59 VRB7G17   30.43R WCI   5
LONDON         CLOUDY    18   5  57 NW14      30.45R WCI   4
SOMERSET       NOT AVBL
MIDDLESBORO    NOT AVBL
MONTICELLO     SUNNY     19   9  65 N18       30.50R WCI   4
$$




USA.gov is the U.S. government's official web portal to all federal, state and local government web resources and services.